#timestamp,LO_Frequency,Hit,StdDev 
1576533615.2,286046995.6,N
1576533635.1,286046996.6,N
1576533636.0,286046996.6,N
1576533655.8,286046999.0,N
1576533675.6,286046999.8,N
1576533695.5,286046998.1,N
1576533715.3,286046999.0,N
1576533735.2,286046998.2,N
1576533755.9,286046998.6,N
1576533775.7,286046998.5,N
1576533795.6,286046998.4,N
1576533845.4,286047000.9,E
1576533855.4,286046998.4,N
1576533875.2,286046999.6,P
1576533895.0,286046997.0,P
1576533895.9,286046997.0,N
1576533915.8,286046998.9,N
1576533935.6,286046998.6,N
1576533955.5,286046999.6,N
1576533975.3,286046997.0,Y
1576533995.1,286047000.6,P
1576534015.9,286046998.2,N
1576534035.7,286046998.3,N
1576534055.5,286046999.5,N
1576534075.4,286046997.7,N
1576534095.2,286046994.9,Y
1576534115.1,286046996.6,P
1576534116.0,286046996.6,P
1576534135.8,286046997.1,N
1576534155.6,286046997.6,N
1576534175.5,286046997.1,Y
1576534195.3,286047000.8,P
1576534215.1,286047000.7,N
1576534235.9,286047001.0,N
1576534255.7,286046998.9,N
1576534275.6,286046998.4,N
1576534295.4,286046998.8,N
1576534315.2,286046998.8,N
1576534335.1,286046998.2,N
1576534336.0,286046998.2,N
1576534355.8,286046998.2,N
1576534375.6,286046999.5,N
1576534395.5,286046999.5,N
1576534415.3,286046998.1,N
1576534435.2,286046998.4,N
1576534455.9,286046998.9,N
1576534475.7,286046999.5,N
1576534495.6,286047000.0,N
1576534515.4,286046999.0,N
1576534535.2,286046999.3,N
1576534555.1,286047000.5,N
1576534556.0,286047000.5,N
1576534575.8,286046998.1,N
1576534595.7,286046999.3,N
1576534615.5,286046998.2,N
1576534635.3,286046999.4,N
1576534655.2,286046996.6,Y
1576534675.0,286046998.7,P
1576534675.9,286046998.7,P
1576534695.7,286047001.2,P
1576534715.6,286047000.5,N
1576534735.4,286047000.5,N
1576534755.3,286047002.6,N
1576534775.1,286047001.3,N
1576534776.0,286047001.3,N
1576534795.8,286047003.9,Y
1576534815.7,286047001.3,P
1576534835.5,286047002.8,P
1576534855.4,286047001.5,N
1576534875.2,286047001.4,N
1576534895.0,286047003.4,Y
1576534895.9,286047003.4,P
1576534915.8,286047001.7,N
1576534935.6,286047002.8,P
1576534955.5,286047002.4,Y
1576534975.3,286047000.1,P
1576534995.1,286047000.1,N
1576535015.9,286047002.2,N
1576535035.7,286047002.0,N
1576535055.5,286047001.7,N
1576535075.4,286047001.6,N
1576535095.2,286047001.5,N
1576535115.1,286047002.8,Y
1576535116.0,286047002.8,P
1576535135.8,286046998.5,N
1576535155.6,286046998.5,N
1576535175.5,286046996.6,N
1576535195.3,286046999.2,N
1576535215.1,286046994.9,N
1576535235.9,286046997.3,N
1576535255.7,286046998.9,N
1576535275.6,286046999.3,N
1576535295.4,286046998.6,N
1576535315.2,286046998.7,N
1576535335.1,286046998.1,N
1576535336.0,286046998.1,N
1576535355.8,286046998.7,N
1576535375.6,286046998.2,N
1576535395.5,286046999.3,N
1576535415.3,286046997.0,N
1576535435.2,286046997.3,N
1576535455.9,286046996.9,N
1576535475.7,286046998.6,N
1576535495.6,286046998.1,N
1576535515.4,286046999.5,N
1576535535.2,286046999.2,N
1576535555.1,286046999.2,N
1576535556.0,286046999.2,N
1576535575.8,286046998.8,N
1576535595.7,286046996.9,N
1576535615.5,286046999.0,N
1576535635.3,286047001.1,N
1576535655.2,286046998.6,N
1576535675.0,286047000.9,N
1576535675.9,286047000.9,N
1576535695.7,286047001.0,N
1576535715.6,286046999.7,N
1576535735.4,286046998.7,N
1576535755.3,286046998.8,N
1576535775.1,286046996.9,N
1576535776.0,286046996.9,N
1576535795.8,286046997.7,N
1576535815.7,286046997.3,N
1576535835.5,286046999.1,N
1576535855.4,286046997.5,N
1576535875.2,286046997.0,N
1576535895.0,286046997.1,N
1576535895.9,286046997.1,N
1576535915.8,286046994.9,Y
1576535935.6,286046999.3,P
1576535955.4,286046999.5,N
1576535975.3,286046999.4,N
1576535995.1,286046999.2,N
1576536015.9,286046999.1,N
1576536035.7,286046998.7,Y
1576536055.5,286046998.2,P
1576536075.4,286046999.1,N
1576536095.2,286046999.4,N
1576536115.0,286046999.2,N
1576536116.0,286046999.2,N
1576536135.8,286047000.3,N
1576536155.6,286047002.6,Y
1576536175.5,286047002.1,P
1576536195.3,286047004.4,P
1576536215.1,286046999.9,N
1576536235.9,286047002.4,N
1576536255.7,286047002.7,N
1576536275.6,286047002.3,N
1576536295.4,286047001.6,N
1576536315.2,286047000.3,N
1576536335.1,286047000.0,N
1576536336.0,286047000.0,N
1576536355.8,286047000.8,N
1576536375.6,286046998.3,N
1576536395.5,286046998.1,N
1576536415.3,286046998.2,N
1576536435.1,286047002.6,N
1576536455.9,286046999.9,N
1576536475.7,286047001.7,N
1576536495.6,286047002.3,N
1576536515.4,286047001.4,N
1576536535.2,286047003.6,N
1576536555.1,286047003.0,N
1576536556.0,286047003.0,N
1576536575.8,286047003.0,N
1576536595.6,286047003.7,N
1576536615.5,286047001.3,N
1576536635.3,286047001.8,N
1576536655.2,286047002.5,N
1576536675.9,286047002.2,N
1576536695.7,286047002.5,N
1576536715.6,286047002.6,N
1576536735.4,286047000.4,N
1576536755.2,286046998.5,N
1576536775.1,286046998.5,N
1576536776.0,286046998.5,N
1576536795.8,286046999.3,N
1576536815.7,286046999.3,N
1576536835.5,286046999.4,N
1576536855.3,286047001.2,N
1576536875.2,286047000.8,N
1576536895.0,286047000.1,N
1576536895.9,286047000.1,N
1576536915.8,286047002.5,N
1576536935.6,286047000.5,N
1576536955.4,286047001.7,N
1576536975.3,286047002.6,N
1576536995.1,286047001.8,N
1576537015.8,286046999.8,N
1576537035.7,286047003.1,N
1576537055.5,286047001.5,N
1576537075.3,286047003.1,N
1576537095.2,286047004.2,N
1576537115.0,286047003.8,N
1576537115.9,286047003.8,N
1576537135.8,286047003.4,N
1576537155.6,286047003.2,N
1576537175.4,286047004.0,N
1576537195.3,286047001.6,N
